Overview Statistics Trail Chart Weather Telemetry Raw packets
 

This is the latest recevied weather packets stored in our database for station/object WA6OOO. If no packets are shown the sender has not sent any weather packets the latest 10 day(s).

<< 42 43 44 45 46 47 48 >>
Time Temp. Humidity Pressure Rain* Wind** Luminosity Snow
1788392949 25° C 51% 1017.7 hPa 0 mm - 281 W/m² -
1788392644 25° C 49% 1017.7 hPa 0 mm - 296 W/m² -
1788392343 25° C 49% 1017.7 hPa 0 mm - 312 W/m² -
1788392037 24.44° C 51% 1017.7 hPa 0 mm - 327 W/m² -
1788391736 23.89° C 51% 1017.6 hPa 0 mm - 340 W/m² -
1788391431 24.44° C 51% 1017.7 hPa 0 mm - 354 W/m² -
1788391131 24.44° C 52% 1017.9 hPa 0 mm - 367 W/m² -
1788390825 24.44° C 52% 1017.9 hPa 0 mm - 382 W/m² -
1788390520 24.44° C 53% 1018 hPa 0 mm - 397 W/m² -
1788390220 23.89° C 54% 1018.1 hPa 0 mm - 412 W/m² -
1788389920 24.44° C 54% 1018 hPa 0 mm - 425 W/m² -
1788389615 24.44° C 57% 1018.2 hPa 0 mm - 441 W/m² -
1788389313 23.89° C 55% 1018.1 hPa 0 mm - 457 W/m² -
1788389008 23.89° C 55% 1018.3 hPa 0 mm - 471 W/m² -
1788388706 24.44° C 55% 1018.4 hPa 0 mm - 487 W/m² -
1788388406 25° C 52% 1018.4 hPa 0 mm - 500 W/m² -
1788388105 24.44° C 56% 1018.4 hPa 0 mm - 513 W/m² -
1788387804 24.44° C 58% 1018.7 hPa 0 mm - 526 W/m² -
1788387498 23.89° C 59% 1018.4 hPa 0 mm - 539 W/m² -
1788387198 24.44° C 56% 1018.5 hPa 0 mm - 551 W/m² -
1788386894 24.44° C 56% 1018.5 hPa 0 mm - 562 W/m² -
1788386593 23.89° C 61% 1018.6 hPa 0 mm - 572 W/m² -
1788386289 24.44° C 57% 1018.7 hPa 0 mm - 581 W/m² -
1788386001 23.89° C 61% 1018.6 hPa 0 mm - 592 W/m² -
1788385685 23.89° C 62% 1018.8 hPa 0 mm - 602 W/m² -

* Rain latest hour (hover to see other rain measurements)
** Current wind speed in m/s (hover to see current wind gust speed)